Location: Poprad
(49.0500°N, 20.3000°E)
Time: 01:26:52
(UTC+02:00)

Daily predictions for brighter satellites

Satellite Brightness Start Highest point End
(mag) Time Altitude Azimuth Time Altitude Azimuth Time Altitude Azimuth
Cosmos 1943 Rocket 4.5 00:00:53 10° WNW 00:02:51 12° W 00:03:36 12° WSW
Cosmos 2082 Rocket 4.3 00:04:56 14° E 00:04:56 14° E 00:06:46 10° ENE
H-2A R/B 3.1 00:07:36 42° NE 00:07:36 42° NE 00:11:08 10° N
USA 238 DEB 3.7 00:08:38 53° WSW 00:10:23 80° NW 00:17:26 10° NE
USA 238 3.7 00:08:46 54° SW 00:10:30 81° NW 00:17:32 10° NE
Cosmos 1452 Rocket 3.9 00:10:49 56° WNW 00:10:58 56° WNW 00:16:12 10° NNE
Cosmos 1656 4.0 00:08:23 10° NNW 00:13:42 52° NE 00:13:53 52° ENE
SeaSat 1 2.7 00:11:08 10° NNE 00:15:32 67° N 00:15:32 67° N
CZ-4 R/B 4.2 00:13:45 10° N 00:18:01 63° NNW 00:18:01 63° NNW
Cosmos 1634 Rocket 4.1 00:12:47 10° NNW 00:18:59 61° W 00:19:22 60° WSW
Meteor 1-24 Rocket 3.7 00:25:22 10° NNW 00:30:35 80° NNW 00:30:35 80° NNW
SL-19 R/B 4.4 00:25:53 10° NNE 00:31:42 73° WNW 00:32:02 71° W
USA 215 4.1 00:29:56 10° ENE 00:36:09 48° N 00:42:21 10° W
Meteor 2-20 Rocket 4.4 00:36:50 71° W 00:37:04 71° WNW 00:43:12 10° N
Cosmos 2180 Rocket 4.4 00:32:15 10° N 00:38:41 84° W 00:38:55 82° SW
Cosmos 2228 4.4 00:40:44 33° NE 00:40:44 33° NE 00:43:23 10° NNE
ALOS 2 4.2 00:42:40 29° WNW 00:42:40 29° WNW 00:45:19 10° NNW
Meteor 2-11 Rocket 4.3 00:35:57 10° N 00:42:08 88° E 00:42:11 88° SE
Mayak 0.2 00:38:18 10° N 00:41:20 36° NW 00:41:20 36° NW
NOSS 3-2 (C) 3.3 00:48:11 86° SW 00:48:22 90° ENE 00:55:10 10° NE
COSMOS 2406 3.3 00:52:02 67° WNW 00:52:08 67° WNW 00:57:53 10° NNE
Cosmos 1980 Rocket 3.1 00:47:18 10° NNW 00:52:45 44° NE 00:54:03 38° E
ADEOS Rocket 4.2 00:46:33 10° N 00:53:50 46° WNW 00:56:28 34° WSW
Cosmos 1110 Rocket 4.2 00:56:24 68° N 00:56:24 68° N 01:01:01 10° NNE
Cosmos 2322 Rocket 4.4 00:55:16 10° N 00:59:36 22° NE 01:03:56 10° E
Cosmos 1238 Rocket 4.1 00:57:11 10° N 01:00:39 45° N 01:00:39 45° N
Lacrosse 5 4.2 01:07:56 12° E 01:07:56 12° E 01:08:41 10° E
CZ-4C R/B 2.8 01:00:26 10° NW 01:07:30 78° SW 01:08:34 67° S
Cosmos 2344 3.5 01:07:53 63° S 01:09:09 75° SE 01:17:44 10° NE
Meteor 1-22 Rocket 4.5 01:12:19 63° W 01:12:32 63° WNW 01:18:36 10° N
ATLAS 3B R/B 3.3 01:12:50 32° W 01:15:52 51° NW 01:22:28 10° NE
Cosmos 1092 Rocket 3.9 01:18:17 69° ESE 01:18:36 71° E 01:24:42 10° NNE
CZ-4B R/B 4.1 01:15:52 10° N 01:19:55 45° NW 01:19:55 45° NW
CENTAUR R/B 2.4 01:21:02 78° SSE 01:21:21 80° SE 01:28:29 10° NE
Cosmos 1833 Rocket 2.8 01:21:56 63° E 01:21:56 63° E 01:27:06 10° NNE
CZ-4B R/B 3.8 01:27:24 23° NE 01:27:24 23° NE 01:29:30 10° N
Cosmos 1302 Rocket 4.1 01:27:49 75° N 01:27:49 75° N 01:32:38 10° NNE
Cosmos 2369 4.4 01:27:41 10° NW 01:32:01 41° WNW 01:32:01 41° WNW
NOSS 3-2 (A) 4.4 01:30:52 30° W 01:33:29 46° NW 01:40:07 10° NE
Cosmos 1626 3.9 01:30:51 10° N 01:33:04 31° NNE 01:33:04 31° NNE
Cosmos 2278 4.3 01:29:15 10° NW 01:33:45 46° WNW 01:33:45 46° WNW
Nadezhda 4 Rocket 4.0 01:34:37 62° W 01:35:00 64° WNW 01:41:06 10° N
ASTEX 1 4.0 01:39:08 49° NW 01:39:08 49° NW 01:43:07 10° NNW
Cosmos 1697 Rocket 3.1 01:35:22 10° NW 01:39:54 50° WNW 01:39:54 50° WNW
Landsat 5 4.2 01:41:35 54° NE 01:41:35 54° NE 01:45:28 10° N
Meteor 1-21 Rocket 4.3 01:35:28 10° NNW 01:41:11 70° W 01:41:11 70° W
Cosmos 1812 Rocket 4.3 01:42:09 51° NE 01:42:09 51° NE 01:45:48 10° NNE
Cosmos 1627 Rocket 4.4 01:41:39 67° SSE 01:42:25 76° E 01:48:49 10° NNE
H-2A R/B 4.2 01:44:43 18° WNW 01:44:43 18° WNW 01:46:34 10° NW
Cosmos 2026 Rocket 3.9 01:44:54 65° SSE 01:45:41 74° E 01:52:01 10° NNE
Cosmos 2082 Rocket 2.1 01:46:47 85° SSE 01:46:53 85° ESE 01:52:36 10° NNE
Cosmos 1553 Rocket 4.2 01:42:34 10° N 01:48:53 64° ENE 01:50:28 48° SE
Cosmos 2360 4.2 01:54:03 10° NNW 01:59:24 65° W 01:59:24 65° W
S3M 4.1 01:55:53 10° N 02:02:01 67° ENE 02:03:43 47° SE
Genesis I 4.2 02:03:33 47° NE 02:03:33 47° NE 02:06:32 10° NE
Cosmos 968 Rocket 3.4 02:02:07 10° NNW 02:06:55 75° WNW 02:06:55 75° WNW
Cosmos 1703 4.2 02:04:27 10° N 02:07:46 47° NE 02:07:46 47° NE
Cosmos 1992 Rocket 3.8 02:09:11 81° SE 02:09:18 82° ESE 02:14:34 10° NNE
Cosmos 1953 3.7 02:11:43 32° NW 02:11:43 32° NW 02:14:32 10° N
Cosmos 1726 4.2 02:12:38 21° E 02:12:38 21° E 02:15:26 10° NE
SL-16 R/B 2.6 02:09:05 10° NNW 02:14:44 61° ENE 02:18:02 25° SE
Cosmos 1340 3.8 02:17:41 38° ENE 02:17:41 38° ENE 02:20:42 10° NNE
USA 215 4.2 02:12:19 10° E 02:18:31 48° N 02:24:43 10° WNW
CZ-2D R/B 2.8 02:13:25 10° NNE 02:18:37 45° E 02:19:52 38° SE
Meteor 1-16 Rocket 4.2 02:18:07 64° S 02:19:08 87° E 02:25:06 10° NNE
AQUA 4.4 02:15:13 10° NNE 02:19:50 46° E 02:20:23 44° ESE
Cosmos 1470 4.4 02:21:48 27° NW 02:21:48 27° NW 02:24:24 10° N
SL-16 R/B 2.5 02:23:46 45° SSE 02:25:55 88° ENE 02:32:14 10° NNW
Spot 2 4.4 02:22:26 10° NNE 02:27:20 74° ESE 02:27:54 66° SSE
Cosmos 1766 Rocket 3.8 02:23:25 10° N 02:27:46 63° ENE 02:28:06 60° ESE
COSMOS 2487 3.5 02:30:53 45° NNE 02:30:53 45° NNE 02:33:25 10° NNE
Cosmos 1655 Rocket 3.9 02:29:42 56° SSW 02:31:09 83° W 02:37:28 10° N
Cosmos 2360 Rocket 3.5 02:28:06 10° NNW 02:33:28 40° NE 02:38:47 10° ESE
Resurs 1-4 Rocket 2.4 02:28:53 10° NNE 02:34:07 61° ESE 02:35:21 47° SSE
BREEZE-M R/B 2.8 02:35:37 54° ESE 02:35:37 54° ESE 02:39:03 10° E
CBERS-1 4.1 02:30:21 10° NNE 02:35:28 70° ESE 02:36:26 55° SSE
SL-8 R/B 3.6 02:37:08 68° SE 02:37:08 68° SE 02:41:25 10° ESE
Cosmos 1980 Rocket 3.0 02:31:31 10° NW 02:35:46 34° W 02:35:46 34° W
Aureole 2 Rocket 3.2 02:38:20 10° NNW 02:41:25 55° NNW 02:41:25 55° NNW
UNK 3.6 02:43:50 69° WSW 02:43:52 69° WSW 02:48:29 10° NNW
Cosmos 2322 Rocket 2.1 02:38:45 10° NNW 02:44:28 89° ENE 02:47:33 29° SSE
Cosmos 1908 3.4 02:46:56 68° E 02:46:57 68° E 02:50:51 10° NNE
Lacrosse 5 1.7 02:47:07 64° SSW 02:47:46 74° SE 02:52:50 10° ENE
Cosmos 2266 Rocket 3.9 02:51:08 40° S 02:53:30 82° E 02:59:36 10° N
CZ-4C R/B 4.3 02:50:08 10° WNW 02:53:42 20° W 02:53:42 20° W
Cosmos 1818 3.7 02:56:42 45° WSW 02:58:12 65° NW 03:03:41 10° NE
CZ-4B R/B 3.7 03:00:49 16° NW 03:00:49 16° NW 03:01:56 10° NW
Meteor 1-11 4.5 02:53:55 10° NNW 02:59:14 47° W 02:59:58 44° WSW
NPP 3.6 02:54:32 10° N 02:59:55 70° WNW 03:01:22 48° SW
IRS-1C 4.1 02:56:31 10° NNE 03:01:54 85° ESE 03:03:44 43° S
Cosmos 1346 Rocket 4.1 03:02:56 29° WNW 03:02:56 29° WNW 03:06:16 10° N
IRS P6 4.5 02:57:30 10° NNE 03:02:48 89° WNW 03:04:28 45° SSW
Cosmos 332 Rocket 3.7 03:02:34 55° SSW 03:03:40 90° S 03:08:33 10° NNE
H-2A R/B 2.8 02:59:16 10° NNE 03:03:43 69° ESE 03:04:55 46° SSE
Meteor 2-1 Rocket 4.4 03:02:52 33° S 03:05:31 70° E 03:11:08 10° NNE
Cosmos 1833 Rocket 4.1 03:03:37 21° W 03:05:55 28° NW 03:10:43 10° NNE
Cosmos 1408 Rocket 3.4 03:01:51 10° NNW 03:06:11 68° W 03:06:40 62° SW
Cosmos 2315 Rocket 3.9 03:01:17 10° N 03:07:31 88° E 03:11:34 23° S
ATLAS 3B R/B 4.5 03:02:35 10° WNW 03:08:07 25° NNW 03:13:31 10° NE
BREEZE-M DEB (TANK) 1.9 03:08:29 73° ENE 03:08:29 73° ENE 03:12:52 10° E
Cosmos 1743 Rocket 3.7 03:06:40 10° N 03:11:00 70° E 03:13:03 30° SSE
CENTAUR R/B 3.8 03:08:11 17° W 03:12:47 37° NNW 03:19:37 10° NE
Cosmos 1500 Rocket 4.0 03:08:50 10° N 03:13:16 61° ENE 03:16:06 21° SSE
BREEZE-M DEB (TANK) 2.6 03:13:26 64° SW 03:13:53 77° SSE 03:16:26 10° ENE
SL-08 R/B 3.7 03:14:11 42° WSW 03:14:35 43° W 03:19:17 10° NNW
Cosmos 883 Rocket 4.5 03:10:56 10° NNW 03:17:00 63° W 03:19:49 32° SSW
IRS-1D 3.5 03:12:21 10° NNE 03:17:32 78° WNW 03:19:32 39° SSW
Cosmos 2058 3.0 03:13:48 10° NNW 03:17:55 54° W 03:18:17 52° WSW
UNKNOWN OBJECT B 3.6 03:17:52 10° NNE 03:21:26 42° E 03:23:00 27° SSE
Cosmos 2219 Rocket 4.0 03:16:28 10° NNW 03:21:33 32° NE 03:26:37 10° ESE
Spot 4 Rocket 4.0 03:16:36 10° NNE 03:21:48 83° ESE 03:24:14 32° S
Timation 2 Rocket 4.2 03:19:09 31° SSW 03:22:40 78° ESE 03:29:33 10° NNE
deb Kosmos-1763 4.2 03:22:39 53° W 03:23:03 57° WNW 03:26:48 10° NNE
Cosmos 405 4.0 03:20:04 10° N 03:23:26 44° ENE 03:26:05 15° SE
ADEOS II 3.0 03:20:17 10° NNE 03:25:20 44° E 03:29:33 14° SSE
Cosmos-2242 3.5 03:26:49 39° W 03:27:30 42° WNW 03:31:37 10° N
Cosmos 2082 Rocket 3.9 03:28:37 15° W 03:31:43 23° NW 03:36:10 10° N
Cosmos 1842 Rocket 3.6 03:30:07 32° S 03:32:10 82° E 03:36:41 10° NNE
COSMOS 2455 3.6 03:28:39 20° S 03:32:28 46° ESE 03:38:12 10° NE
Cosmos 2322 3.8 03:30:26 10° NNW 03:36:09 77° ENE 03:41:48 10° SSE
Shenzhou-11 Module 4.5 03:40:41 12° SE 03:40:41 12° SE 03:41:05 10° SE
Cosmos 1300 2.6 03:40:41 36° SSW 03:42:11 87° WNW 03:46:02 10° N
CZ-2D R/B 3.5 03:38:11 10° NNE 03:42:26 81° E 03:44:52 26° S
In-Cosmos 22 Rocket 4.2 03:36:56 10° N 03:42:32 85° ENE 03:47:57 10° SSE
Cosmos 2237 4.2 03:37:23 10° NNW 03:43:08 89° ENE 03:48:49 10° SSE
ARIANE 5 R/B 2.6 03:38:20 10° N 03:43:32 66° WNW 03:46:18 28° SW
Cosmos 371 Rocket 3.9 03:43:56 28° WSW 03:45:53 42° WNW 03:50:33 10° NNE
Cosmos 1726 3.0 03:47:12 29° W 03:47:42 31° WNW 03:51:01 10° N
Cosmos 2084 3.1 03:45:04 10° NW 03:48:57 64° SW 03:52:46 10° SSE
PSLV R/B 4.5 03:48:31 33° SW 03:49:19 37° W 03:53:09 10° NNW
Nadezhda 2 Rocket 4.4 03:47:03 22° SSW 03:51:06 70° WNW 03:57:14 10° N
Cosmos 1892 3.3 03:48:56 10° N 03:52:45 57° ENE 03:56:30 10° SSE
Cosmos 1340 4.4 03:52:29 17° WNW 03:52:59 18° WNW 03:55:38 10° NNW
Cosmos 1244 Rocket 4.4 03:51:43 18° SSW 03:56:34 77° W 04:02:47 10° N
SJ 16-02 4.2 03:53:15 10° N 03:56:37 21° NE 03:59:58 10° ESE
Cosmos 2151 3.9 03:53:05 10° NNW 03:56:50 29° W 03:57:47 27° WSW
BREEZE-M DEB (TANK) 2.5 03:52:06 10° W 03:57:35 88° SSW 04:00:04 10° ESE
SL-16 R/B 3.2 03:53:52 10° NW 03:58:25 25° WSW 03:59:47 23° SW
CZ-2D R/B 3.1 03:53:48 10° N 03:58:32 32° WNW 04:01:12 21° WSW
USA 215 3.4 03:54:38 10° ESE 04:01:11 81° NNE 04:07:44 10° NW
Sich 1 3.9 03:58:23 10° N 04:02:35 51° ENE 04:06:46 10° SSE
Cosmos 1666 Rocket 4.4 04:04:27 10° N 04:08:50 53° ENE 04:13:08 10° SSE
Cosmos 1833 4.2 04:04:46 19° SSW 04:08:57 89° WNW 04:14:39 10° NNE
SL-16 R/B 3.9 04:08:52 17° WSW 04:10:22 18° W 04:14:30 10° NW
Resurs 1-4 Rocket 3.5 04:09:26 10° N 04:13:34 24° WNW 04:16:25 15° W
Helios 1A Rocket 2.9 04:10:56 10° NNE 04:15:07 85° WNW 04:18:44 13° SSW
ADEOS 3.6 04:10:27 10° N 04:15:40 70° WNW 04:20:12 14° SSW
PSLV R/B 4.4 04:13:09 10° NNE 04:17:14 49° E 04:21:18 10° S
Cosmos 2360 Rocket 2.6 04:12:12 10° NW 04:17:29 41° WSW 04:22:43 10° S
Tiangong 2 2.6 04:16:34 20° SSW 04:17:34 23° S 04:20:11 10° ESE
Cosmos 405 Rocket 3.5 04:14:19 10° S 04:18:12 54° E 04:22:12 10° NNE
SL-8 R/B 4.3 04:15:10 13° W 04:18:51 34° SSW 04:23:08 10° SSE
SAR-Lupe-2 3.8 04:16:35 11° S 04:19:57 47° W 04:23:26 10° NNW
Okean O Rocket 4.3 04:17:26 10° NE 04:20:26 18° E 04:23:25 10° SE
Cosmos 2221 2.6 04:17:58 16° SSW 04:21:11 56° WNW 04:25:25 10° N
Cosmos 304 Rocket 4.2 04:19:34 18° SW 04:22:49 47° WNW 04:27:29 10° NNE
Cosmos 1633 Rocket 3.5 04:20:56 10° N 04:25:18 64° ENE 04:29:38 10° SSE
Cosmos 1898 Rocket 3.4 04:20:20 10° NNW 04:25:31 66° WSW 04:30:39 10° S
Cosmos 2322 Rocket 3.7 04:24:20 10° WNW 04:27:43 16° W 04:29:14 15° WSW
Nadezhda 1 Rocket 3.9 04:21:59 10° NNW 04:28:06 72° W 04:34:17 10° S
Cosmos 1441 Rocket 3.1 04:25:03 11° SSW 04:28:43 81° W 04:32:35 10° N
Cosmos 1386 Rocket 4.5 04:24:01 10° S 04:30:03 87° E 04:36:13 10° N
COSMOS 2428 2.7 04:24:43 10° NNW 04:30:28 75° WSW 04:36:10 10° SSE
Lacrosse 5 2.8 04:26:19 10° W 04:31:04 42° NNW 04:35:53 10° NE
Meteor 1-28 Rocket 3.7 04:29:45 10° SSE 04:33:32 66° ENE 04:37:19 10° N
Atlas Centaur 2 4.3 04:34:09 10° SSW 04:35:56 11° S 04:37:37 10° SSE
Cosmos 2333 4.3 04:31:32 10° NW 04:37:14 60° WSW 04:42:52 10° S
Cosmos 2333 Rocket 2.3 04:32:11 10° NNW 04:37:59 90° NE 04:43:44 10° SSE
Cosmos 2227 Rocket 4.5 04:33:53 10° SSE 04:38:09 22° E 04:42:26 10° NE
H-2A R/B 4.4 04:35:51 10° NNW 04:38:45 17° WNW 04:41:31 11° W
Meteor 1-4 Rocket 4.2 04:36:28 10° N 04:39:45 37° ENE 04:43:02 10° SE
Cosmos 1408 2.8 04:36:16 10° N 04:40:00 75° E 04:43:44 10° SSE
Cosmos 2208 Rocket 4.1 04:35:14 10° SSW 04:40:41 82° WNW 04:46:11 10° NNE
Cosmos 1937 Rocket 3.5 04:38:25 10° NNW 04:43:42 65° WSW 04:48:56 10° S
Cosmos 1805 Rocket 4.0 04:40:44 10° NNW 04:44:49 41° W 04:48:52 10° SSW
BREEZE-M DEB (TANK) 3.9 04:41:18 12° WSW 04:45:11 68° SSE 04:58:47 10° E
Cosmos 2237 Rocket 2.9 04:41:40 10° NNW 04:47:19 61° ENE 04:52:52 10° SE
Cosmos 1455 2.3 04:48:37 10° SSW 04:52:27 62° W 04:56:20 10° N
Cosmos 1980 4.1 04:48:18 10° NNW 04:54:00 72° ENE 04:59:40 10° SE
Cosmos 841 Rocket 4.1 04:49:08 10° S 04:54:10 57° ESE 04:59:13 10° NNE
UNKNOWN OBJECT B 4.4 04:53:03 10° NNW 04:55:38 18° WNW 04:58:11 10° WSW
Cosmos 990 Rocket 4.2 04:51:21 10° NNW 04:56:20 48° WSW 05:01:16 10° S
USA 229 DEB 3.8 04:50:53 10° SW 04:57:38 89° NW 05:04:39 10° NE
USA 229 3.8 04:51:00 10° SW 04:57:45 89° NW 05:04:46 10° NE
NOSS 3-1 (A) 4.3 04:52:51 10° SSW 04:58:17 46° ESE 05:04:26 10° NE
Cosmos 1814 Rocket 4.1 04:58:14 10° SSW 05:03:27 84° ESE 05:08:38 10° NNE
SL-19 R/B 4.5 04:59:34 10° SSE 05:04:01 89° NE 05:07:52 10° NNW
ADEOS II 3.0 05:00:19 10° N 05:04:54 31° WNW 05:09:26 10° WSW
SL-08 ROCKET BODY 4.5 04:59:42 10° S 05:05:43 87° E 05:11:40 10° N
Cosmos 2219 Rocket 2.3 05:00:16 10° NW 05:05:48 54° WSW 05:11:17 10° S
Cosmos 292 Rocket 3.8 05:01:28 10° SSW 05:06:18 77° WNW 05:11:13 10° NNE
Cosmos 1151 Rocket 3.6 05:02:31 10° S 05:06:45 63° E 05:11:03 10° NNE
Cosmos 1763 Rocket 3.5 05:02:20 10° SSW 05:07:25 80° WNW 05:12:35 10° NNE
Cosmos 2181 Rocket 4.1 05:04:04 10° N 05:10:31 81° W 05:16:58 10° S
MOS 1-B 4.4 05:07:08 10° NNE 05:12:58 88° WNW 05:18:48 10° SSW
